FW9665 Weather Reports


time (UTC)temp
F
wind
direction
speed
knots
gust
knots
rain 1hr
in
rain 24hr
in
rain mn
in
humidity
%
barometer
mb
20260507044536 52 0.0 0.0 0.00 0.01 0.00 85 1011.5
20260507044036 52 0.0 0.0 0.00 0.01 0.00 85 1011.5
20260507043516 52 0.0 0.0 0.00 0.01 0.00 85 1011.5
20260507043036 52 0.0 0.0 0.00 0.01 0.00 85 1011.5
20260507042516 52 0.0 0.9 0.00 0.01 0.00 85 1011.5
20260507042036 52 0.0 0.0 0.00 0.01 0.00 85 1011.5
20260507041516 52 0.0 0.0 0.00 0.01 0.00 85 1011.4
20260507041036 52 0.0 0.0 0.00 0.01 0.00 85 1011.4
20260507040516 52 0.0 0.9 0.00 0.01 0.00 85 1011.4
20260507040016 52 0.0 0.0 0.00 0.01 0.00 85 1011.3
20260507035516 52 0.0 0.0 0.00 0.01 0.00 85 1011.1
20260507035016 52 0.0 0.9 0.00 0.01 0.00 85 1011.0
20260507034516 53 0.0 0.0 0.00 0.01 0.00 85 1011.1
20260507034016 53 0.0 0.0 0.00 0.01 0.00 86 1011.2
20260507033516 53 0.0 0.0 0.00 0.01 0.00 86 1011.2
20260507033016 53 0.0 0.0 0.00 0.01 0.00 86 1011.2
20260507032516 53 0.0 0.0 0.00 0.01 0.00 86 1011.1
20260507032016 53 0.0 0.0 0.00 0.01 0.00 86 1011.2
20260507031516 54 0.0 0.0 0.00 0.01 0.00 86 1011.2
20260507031016 54 0.0 2.6 0.00 0.01 0.00 86 1011.2
20260507030516 54 158 0.9 2.6 0.00 0.01 0.00 86 1011.3
20260507030016 54 0.0 0.0 0.00 0.01 0.00 86 1011.3
20260507025536 55 0.0 0.0 0.00 0.01 0.00 86 1011.3
20260507025016 55 0.0 0.0 0.00 0.01 0.00 87 1011.3
20260507024516 55 0.0 1.7 0.00 0.01 0.00 87 1011.2
20260507024036 55 180 0.9 1.7 0.00 0.01 0.00 87 1011.2
20260507023536 55 0.0 0.9 0.00 0.01 0.00 87 1011.1
20260507023016 56 0.0 1.7 0.00 0.01 0.00 87 1011.2
20260507022516 56 135 0.9 2.6 0.00 0.01 0.00 87 1011.3
20260507022036 56 0.0 2.6 0.00 0.01 0.00 87 1011.4
20260507021516 56 0.0 0.0 0.00 0.01 0.00 87 1011.4
20260507021016 56 45 0.9 3.5 0.00 0.01 0.00 87 1011.3
20260507020516 56 45 0.9 2.6 0.00 0.01 0.00 86 1011.3
20260507020016 56 0.0 0.9 0.00 0.01 0.00 86 1011.4
20260507015516 56 45 0.9 3.5 0.00 0.01 0.00 86 1011.3
20260507015016 56 0.0 1.7 0.00 0.01 0.00 86 1011.3
20260507014516 56 45 0.9 3.5 0.00 0.01 0.00 85 1011.2
20260507014016 56 338 0.9 2.6 0.00 0.01 0.00 85 1011.3
20260507013516 56 23 0.9 2.6 0.00 0.01 0.00 85 1011.1
20260507013016 56 0.0 1.7 0.00 0.01 0.00 84 1011.2
20260507012516 56 0.0 1.7 0.00 0.01 0.00 84 1011.2
20260507012016 56 338 0.9 2.6 0.00 0.01 0.00 84 1011.2
20260507011516 56 45 0.9 2.6 0.00 0.01 0.00 83 1011.3
20260507011016 56 0.0 1.7 0.00 0.01 0.00 83 1011.2
20260507010516 56 158 0.9 1.7 0.00 0.01 0.00 83 1011.1
20260507010016 56 0.0 0.0 0.00 0.01 0.00 82 1011.1
20260507005516 56 0.0 0.9 0.00 0.01 0.00 83 1011.0
20260507005016 57 0.0 0.9 0.00 0.01 0.00 82 1011.1
20260507004516 57 0.0 0.9 0.00 0.01 0.00 82 1011.1
20260507004036 57 0.0 0.9 0.00 0.01 0.00 82 1011.0
20260507003516 57 0.0 1.7 0.00 0.01 0.00 82 1011.1
20260507003016 57 0.0 2.6 0.00 0.01 0.00 82 1011.1
20260507002536 57 315 0.9 4.3 0.00 0.01 0.00 81 1010.9
20260507002016 57 315 2.6 7.0 0.00 0.01 0.00 81 1010.9
20260507001516 57 0 1.7 3.5 0.00 0.01 0.00 81 1011.0
20260507001015 57 338 1.7 4.3 0.00 0.01 0.00 81 1011.0
20260507000516 57 338 4.3 8.7 0.00 0.01 0.00 80 1011.1
20260507000015 57 338 6.1 9.6 0.00 0.01 0.00 80 1011.2
20260506235515 58 338 3.5 7.0 0.00 0.01 0.00 80 1011.1
20260506235016 58 315 3.5 7.8 0.00 0.01 0.00 79 1011.1
20260506234536 58 0.0 2.6 0.00 0.01 0.00 79 1011.2
20260506234015 58 0.0 1.7 0.00 0.01 0.00 79 1011.3
20260506233536 58 113 0.9 3.5 0.00 0.01 0.00 78 1011.2
20260506233016 58 315 1.7 3.5 0.00 0.01 0.00 77 1011.3
20260506232516 58 315 2.6 6.1 0.00 0.01 0.00 77 1011.2
20260506232016 58 315 6.1 9.6 0.00 0.01 0.00 78 1011.2
20260506231515 58 315 5.2 9.6 0.00 0.01 0.00 79 1011.2
20260506231016 58 338 2.6 6.1 0.00 0.01 0.00 79 1011.3
20260506230515 58 338 3.5 9.6 0.00 0.01 0.00 79 1011.2
20260506230016 58 113 0.9 2.6 0.00 0.01 0.00 79 1011.4
20260506225515 58 0.0 2.6 0.00 0.01 0.00 79 1011.2
20260506225016 58 90 0.9 1.7 0.00 0.01 0.00 79 1011.3
20260506224536 59 135 1.7 4.3 0.00 0.01 0.00 79 1011.3
20260506224015 59 135 0.9 4.3 0.00 0.01 0.00 79 1011.4
20260506223516 59 113 0.9 4.3 0.00 0.01 0.00 78 1011.4
20260506223015 59 338 1.7 4.3 0.00 0.01 0.00 77 1011.3
20260506222516 58 338 2.6 5.2 0.00 0.01 0.00 77 1011.3
20260506222015 58 338 2.6 5.2 0.00 0.01 0.00 77 1011.4
20260506221516 59 338 3.5 7.0 0.00 0.01 0.00 77 1011.3
20260506221015 59 338 2.6 5.2 0.00 0.01 0.00 77 1011.4
20260506220515 59 338 3.5 5.2 0.00 0.01 0.00 77 1011.4
20260506220015 59 315 6.1 8.7 0.00 0.01 0.01 77 1011.4
20260506215516 59 315 6.1 11.3 0.00 0.01 0.01 77 1011.4
20260506215016 59 315 6.1 13.9 0.00 0.01 0.01 77 1011.5
20260506214516 59 293 6.1 11.3 0.00 0.01 0.01 78 1011.3
20260506214016 58 315 8.7 13.0 0.00 0.01 0.01 78 1011.2
20260506213516 58 315 6.1 9.6 0.00 0.01 0.01 78 1011.4
20260506213016 59 0 0.9 4.3 0.00 0.01 0.01 79 1011.5
20260506212516 59 90 0.9 4.3 0.00 0.01 0.01 79 1011.3
20260506212016 59 113 1.7 3.5 0.00 0.01 0.01 78 1011.3
20260506211516 59 338 1.7 5.2 0.00 0.01 0.01 77 1011.2
20260506211016 59 23 0.9 4.3 0.00 0.01 0.01 77 1011.3
20260506210516 59 293 0.9 2.6 0.00 0.01 0.01 77 1011.3
20260506210016 59 315 5.2 10.4 0.00 0.01 0.01 77 1011.4
20260506205516 59 315 8.7 13.0 0.00 0.01 0.01 77 1011.1
20260506205016 59 315 10.4 13.9 0.00 0.01 0.01 77 1011.1
20260506204516 59 338 10.4 15.6 0.00 0.01 0.01 77 1011.2
20260506204016 59 338 9.6 17.4 0.00 0.01 0.01 77 1011.2
20260506203516 59 338 7.0 13.9 0.00 0.01 0.01 76 1011.1
20260506203016 59 338 5.2 9.6 0.00 0.01 0.01 76 1011.2
20260506202516 60 338 1.7 4.3 0.00 0.01 0.01 76 1011.0
20260506202036 60 338 2.6 5.2 0.00 0.01 0.01 75 1011.0
20260506201516 60 45 1.7 7.0 0.00 0.01 0.01 74 1011.0
20260506201036 60 338 1.7 4.3 0.00 0.01 0.01 72 1010.9
20260506200516 60 315 0.9 4.3 0.00 0.01 0.01 72 1010.9
20260506200016 60 113 1.7 4.3 0.00 0.01 0.01 72 1010.8
20260506195516 61 338 1.7 6.1 0.00 0.01 0.01 70 1010.7
20260506195036 61 338 1.7 4.3 0.00 0.01 0.01 69 1010.7
20260506194516 60 315 5.2 9.6 0.00 0.01 0.01 67 1010.5
20260506194016 60 338 7.8 13.9 0.00 0.01 0.01 67 1010.4
20260506193516 60 315 5.2 9.6 0.00 0.01 0.01 68 1010.2
20260506193016 60 315 8.7 15.6 0.00 0.01 0.01 68 1010.3
20260506192516 60 315 4.3 7.8 0.00 0.01 0.01 69 1010.5
20260506192016 60 315 3.5 7.0 0.00 0.01 0.01 69 1010.5
20260506191535 60 315 6.1 10.4 0.00 0.01 0.01 69 1010.3
20260506191015 60 315 7.0 11.3 0.00 0.01 0.01 70 1010.2
20260506190516 60 315 6.1 10.4 0.00 0.01 0.01 70 1010.2
20260506190055 60 315 5.2 10.4 0.00 0.01 0.01 71 1010.2
20260506185515 60 315 6.1 10.4 0.00 0.01 0.01 71 1010.0
20260506185016 60 315 5.2 8.7 0.00 0.01 0.01 71 1010.0
20260506184516 60 315 7.0 10.4 0.00 0.01 0.01 70 1010.0
20260506184016 60 315 7.0 9.6 0.00 0.01 0.01 70 1009.9
20260506183516 60 315 7.8 11.3 0.00 0.01 0.01 69 1009.9
20260506183016 60 315 7.0 11.3 0.00 0.01 0.01 69 1009.8
20260506182516 61 315 4.3 10.4 0.00 0.01 0.01 70 1009.8
20260506182015 61 315 1.7 3.5 0.00 0.01 0.01 70 1009.9
20260506181515 61 315 3.5 7.8 0.00 0.01 0.01 69 1009.8
20260506181015 61 315 4.3 7.8 0.00 0.01 0.01 69 1009.9
20260506180516 61 315 2.6 5.2 0.00 0.01 0.01 69 1009.9
20260506180016 61 315 1.7 3.5 0.00 0.01 0.01 68 1009.9
20260506175515 61 293 2.6 6.1 0.00 0.01 0.01 68 1009.8
20260506175016 61 315 3.5 7.0 0.00 0.01 0.01 68 1009.7
20260506174536 61 315 6.1 10.4 0.00 0.01 0.01 68 1009.7
20260506174036 61 338 4.3 10.4 0.00 0.01 0.01 68 1009.7
20260506173516 61 315 2.6 5.2 0.00 0.01 0.01 68 1009.6
20260506173015 61 315 4.3 7.0 0.00 0.01 0.01 68 1009.6
20260506172515 61 315 6.1 10.4 0.00 0.01 0.01 68 1009.5
20260506172015 62 315 9.6 13.9 0.00 0.01 0.01 67 1009.5
20260506171535 62 315 7.8 12.2 0.00 0.01 0.01 67 1009.7
20260506171015 62 315 7.8 13.0 0.00 0.01 0.01 66 1009.7
20260506170516 63 315 7.0 12.2 0.00 0.01 0.01 66 1009.7
20260506170015 63 315 4.3 8.7 0.00 0.01 0.01 66 1009.7
20260506165516 63 315 7.8 13.9 0.00 0.01 0.01 66 1009.8
20260506165016 64 315 4.3 10.4 0.00 0.01 0.01 65 1009.7
20260506164515 64 315 3.5 7.8 0.00 0.01 0.01 66 1009.8
20260506164016 64 315 0.9 3.5 0.00 0.01 0.01 67 1009.8
20260506163516 64 315 6.1 12.2 0.00 0.01 0.01 65 1009.7
20260506163015 64 315 6.1 11.3 0.00 0.01 0.01 65 1009.8
20260506162535 65 315 6.1 12.2 0.00 0.01 0.01 66 1009.8
20260506162015 65 315 5.2 12.2 0.00 0.01 0.01 66 1009.8
20260506161515 65 338 3.5 7.8 0.00 0.01 0.01 65 1009.8
20260506161015 65 315 7.8 14.8 0.00 0.01 0.01 63 1009.7
20260506160515 66 315 7.0 14.8 0.00 0.01 0.01 64 1009.9
20260506160035 66 338 5.2 11.3 0.00 0.01 0.01 64 1009.9
20260506155515 66 338 3.5 7.0 0.00 0.01 0.01 65 1010.0
20260506155036 66 338 6.1 12.2 0.00 0.01 0.01 62 1009.9
20260506154518 67 338 4.3 9.6 0.00 0.01 0.01 62 1009.9
20260506154017 66 315 2.6 7.0 0.00 0.01 0.01 60 1009.9
20260506153517 67 315 4.3 8.7 0.00 0.01 0.01 61 1009.9
20260506153017 66 338 1.7 5.2 0.00 0.01 0.01 63 1009.9
20260506152517 66 315 5.2 9.6 0.00 0.01 0.01 61 1009.9
20260506152017 66 338 7.0 13.0 0.00 0.01 0.01 61 1009.8
20260506151537 66 338 6.1 12.2 0.00 0.01 0.01 62 1009.7
20260506151016 66 315 8.7 15.6 0.00 0.01 0.01 62 1009.7
20260506150517 66 315 7.0 12.2 0.00 0.01 0.01 63 1009.8
20260506150017 66 338 9.6 16.5 0.00 0.01 0.01 63 1009.8
20260506145517 66 315 10.4 16.5 0.00 0.01 0.01 62 1009.8
20260506145016 67 338 8.7 16.5 0.00 0.01 0.01 61 1009.7
20260506144516 67 338 7.0 11.3 0.00 0.01 0.01 61 1009.9
20260506144017 67 338 5.2 12.2 0.00 0.01 0.01 62 1009.8
20260506143517 66 315 8.7 13.9 0.00 0.01 0.01 62 1009.7
20260506143017 67 315 7.8 14.8 0.00 0.01 0.01 61 1009.7
20260506142517 66 338 6.1 11.3 0.00 0.01 0.01 63 1009.7
20260506142017 66 338 11.3 22.6 0.00 0.01 0.01 62 1009.6
20260506141517 66 338 12.2 22.6 0.00 0.01 0.01 61 1009.6
20260506141017 67 338 8.7 15.6 0.00 0.01 0.01 60 1009.8
20260506140517 67 338 10.4 20.9 0.00 0.01 0.01 60 1009.7
20260506140017 68 338 5.2 10.4 0.00 0.01 0.01 60 1009.6
20260506135538 68 338 7.0 16.5 0.00 0.01 0.01 59 1009.6
20260506135017 69 338 5.2 17.4 0.00 0.01 0.01 58 1009.8
20260506134517 68 338 4.3 10.4 0.00 0.01 0.01 60 1009.8
20260506134015 68 315 4.3 11.3 0.00 0.01 0.01 60 1009.7
20260506133537 68 338 4.3 8.7 0.00 0.01 0.01 60 1009.7
20260506133017 68 338 4.3 12.2 0.00 0.01 0.01 61 1009.8
20260506132517 68 338 5.2 13.0 0.00 0.01 0.01 60 1009.9
20260506132017 69 338 6.1 13.9 0.00 0.01 0.01 59 1010.0
20260506131517 70 338 3.5 9.6 0.00 0.01 0.01 59 1010.1
20260506131017 69 338 5.2 11.3 0.00 0.01 0.01 60 1010.1
20260506130517 70 338 3.5 9.6 0.00 0.01 0.01 59 1010.1
20260506130017 69 315 3.5 10.4 0.00 0.01 0.01 60 1010.2
20260506125517 69 315 1.7 8.7 0.00 0.01 0.01 62 1010.4
20260506125017 69 315 0.9 4.3 0.00 0.01 0.01 62 1010.4
20260506124557 69 315 4.3 9.6 0.00 0.01 0.01 63 1010.4
20260506124017 69 338 4.3 11.3 0.00 0.01 0.01 62 1010.5
20260506123517 69 338 1.7 6.1 0.00 0.01 0.01 65 1010.7
20260506123017 68 0 0.9 2.6 0.00 0.01 0.01 68 1010.8
20260506122517 67 338 2.6 8.7 0.00 0.01 0.01 67 1010.7
20260506122017 67 338 1.7 4.3 0.00 0.01 0.01 71 1010.8
20260506121517 66 315 2.6 7.8 0.00 0.01 0.01 71 1010.8
20260506121017 66 338 4.3 11.3 0.00 0.01 0.01 68 1010.6
20260506120517 65 45 0.9 2.6 0.00 0.01 0.01 70 1010.7
20260506120017 65 315 3.5 7.0 0.00 0.01 0.01 68 1010.6
20260506115517 66 315 3.5 9.6 0.00 0.01 0.01 68 1010.6
20260506115017 66 315 2.6 7.0 0.00 0.01 0.01 68 1010.7
20260506114517 66 315 4.3 10.4 0.00 0.01 0.01 68 1010.6
20260506114017 66 315 4.3 10.4 0.00 0.01 0.01 68 1010.5
20260506113517 66 315 2.6 7.0 0.00 0.01 0.01 71 1010.5
20260506113017 65 338 1.7 4.3 0.00 0.01 0.01 71 1010.3
20260506112517 65 315 5.2 12.2 0.00 0.01 0.01 72 1010.3
20260506112017 64 315 5.2 9.6 0.00 0.01 0.01 73 1010.2
20260506111517 63 315 9.6 15.6 0.00 0.01 0.01 71 1010.3
20260506111017 64 315 8.7 20.0 0.00 0.01 0.01 69 1010.1
20260506110517 65 315 7.8 15.6 0.00 0.01 0.01 69 1010.2
20260506110017 65 315 7.8 14.8 0.00 0.01 0.01 68 1010.2
20260506105537 65 315 5.2 12.2 0.00 0.01 0.01 69 1010.1
20260506105017 65 315 6.1 12.2 0.00 0.01 0.01 69 1010.2
20260506104517 64 315 7.0 13.0 0.00 0.01 0.01 71 1010.1
20260506104017 64 315 5.2 13.9 0.00 0.01 0.01 72 1010.1
20260506103537 63 315 7.8 16.5 0.00 0.01 0.01 72 1010.0
20260506103017 63 315 9.6 15.6 0.00 0.01 0.01 72 1010.0
20260506102537 62 315 8.7 15.6 0.00 0.01 0.01 73 1009.9
20260506102017 62 315 10.4 17.4 0.00 0.01 0.01 72 1010.0
20260506101517 63 293 11.3 19.1 0.00 0.01 0.01 71 1009.9
20260506101017 64 293 11.3 17.4 0.00 0.01 0.01 70 1010.2
20260506100516 65 315 10.4 20.9 0.00 0.01 0.01 69 1010.3
20260506100017 65 315 9.6 18.2 0.00 0.01 0.01 69 1010.3
20260506095536 66 315 11.3 16.5 0.00 0.01 0.01 66 1010.0
20260506095017 66 315 10.4 15.6 0.00 0.01 0.01 64 1010.2
20260506094517 67 315 7.0 12.2 0.00 0.01 0.01 63 1010.3
20260506094037 67 315 5.2 12.2 0.00 0.01 0.01 63 1010.3
20260506093517 67 338 0.9 2.6 0.00 0.01 0.01 62 1010.3
20260506093017 67 158 1.7 7.0 0.00 0.01 0.01 63 1010.0
20260506092517 67 135 1.7 7.0 0.00 0.01 0.01 62 1010.2
20260506092017 66 135 0.9 2.6 0.00 0.01 0.01 64 1010.0
20260506091537 66 158 1.7 7.8 0.00 0.01 0.01 62 1009.9
20260506091016 65 315 1.7 4.3 0.00 0.01 0.01 62 1010.0
20260506090536 65 135 0.9 3.5 0.00 0.01 0.01 63 1009.9
20260506090017 64 315 5.2 11.3 0.00 0.01 0.01 55 1009.9
20260506085517 63 315 5.2 10.4 0.00 0.01 0.01 55 1009.9
20260506085017 63 338 7.0 13.0 0.00 0.01 0.01 56 1009.9
20260506084516 63 315 8.7 13.9 0.00 0.01 0.01 56 1009.8
20260506084017 63 338 10.4 15.6 0.00 0.01 0.01 55 1009.8
20260506083517 63 315 10.4 16.5 0.00 0.01 0.01 56 1009.7
20260506083017 63 315 7.8 12.2 0.00 0.01 0.01 60 1009.7
20260506082537 63 315 8.7 13.9 0.00 0.01 0.01 60 1009.7
20260506082016 63 315 7.0 12.2 0.00 0.01 0.01 62 1009.7
20260506081537 63 315 6.1 13.0 0.00 0.01 0.01 67 1009.6
20260506081036 63 315 6.1 11.3 0.00 0.01 0.01 69 1009.6
20260506080516 63 338 4.3 11.3 0.00 0.01 0.01 71 1009.6
20260506073516 60 315 7.8 13.0 0.00 0.01 0.01 78 1009.4
20260506073016 59 315 7.8 19.1 0.00 0.01 0.01 79 1009.3
20260506072516 59 315 10.4 19.1 0.00 0.01 0.01 78 1009.4
20260506072017 59 315 8.7 13.9 0.00 0.01 0.01 78 1009.5
20260506071516 60 315 8.7 15.6 0.00 0.01 0.01 77 1009.7
20260506071016 60 315 4.3 9.6 0.00 0.01 0.01 77 1009.8
20260506070536 60 315 0.9 6.1 0.00 0.01 0.01 77 1009.8
20260506062517 61 315 7.0 12.2 0.01 0.01 0.01 74 1009.6
20260506062017 60 315 8.7 14.8 0.01 0.01 0.01 75 1009.3
20260506061536 60 293 9.6 13.9 0.01 0.01 0.01 76 1009.3
20260506061036 60 315 12.2 15.6 0.01 0.01 0.01 76 1009.2
20260506060516 60 293 11.3 16.5 0.01 0.01 0.01 77 1009.2
20260506051036 57 315 1.7 6.1 0.00 0.00 0.00 83 1009.5
20260506050516 57 315 6.1 11.3 0.00 0.00 0.00 84 1009.5
20260506045016 57 45 2.6 7.0 0.00 0.01 0.00 83 1009.3